Weather Roundup
Issued by NWS

Home | Current Version | Previous Version | Graphics & Text | Print | Product List | Glossary Off
Versions: 1 2 3 4 5 6 7 8 9 10 11 12 13 14 15 16 17 18 19 20 21 22 23 24 25 26 27 28 29 30 31 32 33 34 35 36 37 38 39 40 41 42 43 44 45 46 47 48 49 50

000
NZUS93 KARX 020459
HRRWXR

CURRENT HOURLY OBSERVATIONS ACROSS
MUCH OF THE UPPER MISSISSIPPI VALLEY
NATIONAL WEATHER SERVICE LA CROSSE WI
1200 AM CDT THU JUL 02 2015


...SOUTHEAST MINNESOTA...


CITY           SKY/WX    TMP DP  RH WIND       PRES   REMARKS
ROCHESTER      CLEAR     56  50  80 E6        30.01F
ROCHESTER/MAYO NOT AVBL
WINONA         NOT AVBL
AUSTIN         CLEAR     54  52  94 CALM      30.01S
ALBERT LEA     NOT AVBL
DODGE CENTER   NOT AVBL
PRESTON        NOT AVBL
OWATONNA       NOT AVBL
FARIBAULT      NOT AVBL
$$

...ELSEWHERE IN MINNESOTA...


CITY           SKY/WX    TMP DP  RH WIND       PRES   REMARKS
MINNEAPOLIS    PTCLDY    62  53  72 CALM      30.01S
INTNL FALLS    CLEAR     55  53  93 CALM      29.96F
DULUTH         PTCLDY    58  49  72 CALM      30.02S
RED WING       CLEAR     55  55 100 N3        30.00F
REDWOOD FALLS  CLEAR     57  52  83 SE3       30.01S
MANKATO        CLEAR     61  48  63 CALM      30.01S
WORTHINGTON    CLEAR     57  52  82 E5        30.02R
FAIRMONT       CLEAR     54  48  82 CALM      30.01R
$$

...SOUTHWEST WISCONSIN...


CITY           SKY/WX    TMP DP  RH WIND       PRES   REMARKS
LA CROSSE      CLEAR     57  54  89 CALM      30.00F
PRAIRIE DU CHI NOT AVBL
BOSCOBEL       FOG       50  49  96 CALM      30.01S VSB 3/4
LONE ROCK      NOT AVBL
PLATTEVILLE    NOT AVBL
FORT MC COY    NOT AVBL
CAMP DOUGLAS   FOG       46  46 100 CALM      30.00F VSB 1/2
VIROQUA        NOT AVBL
WIS DELLS      NOT AVBL
$$

...ELSEWHERE IN WISCONSIN...


CITY           SKY/WX    TMP DP  RH WIND       PRES   REMARKS
MILWAUKEE      CLEAR     53  48  83 N7        30.02F
MADISON        CLEAR     56  51  84 SE5       30.01S
GREEN BAY      CLEAR     53  49  86 CALM      30.05R
EAU CLAIRE     CLEAR     56  52  86 CALM      30.00F
BLACK RVR FLS  NOT AVBL
MEDFORD        NOT AVBL
WAUSAU         CLEAR     56  49  77 E9        30.02R
WIS RAPIDS     CLEAR     52  49  89 CALM      30.02S
MARSHFIELD     CLEAR     56  48  74 NE3       30.01F
RICE LAKE      NOT AVBL
$$

...NORTHEAST IOWA...


CITY           SKY/WX    TMP DP  RH WIND       PRES   REMARKS
DECORAH        NOT AVBL
MASON CITY     CLEAR     52  50  93 E6        30.02F
CHARLES CITY   NOT AVBL
OELWEIN        NOT AVBL
$$

...ELSEWHERE IN IOWA...


CITY           SKY/WX    TMP DP  RH WIND       PRES   REMARKS
DES MOINES     MOCLDY    65  56  72 E9        29.95S
IOWA CITY      MOCLDY    63  56  78 NE7       29.98S
FORT DODGE     CLEAR     57  52  82 E6        30.00R
$$

...NORTHERN ILLINOIS...


CITY           SKY/WX    TMP DP  RH WIND       PRES   REMARKS
CHICAGO-OHARE  MOCLDY    54  49  83 N6        30.00S
CHICAGO-MIDWAY CLOUDY    59  51  75 N8        29.99S
MOLINE         MOCLDY    66  53  63 NE10      29.97R
ROCKFORD       PTCLDY    56  50  80 E5        30.02F
PEORIA         CLOUDY    68  58  70 E15       29.95R
$$

NOTE: "FAIR" INDICATES FEW OR NO CLOUDS BELOW 12,000 FEET WITH NO
SIGNIFICANT WEATHER AND/OR OBSTRUCTIONS TO VISIBILITY. WIND
SPEEDS ARE IN MILES-PER-HOUR.



USA.gov is the U.S. government's official web portal to all federal, state and local government web resources and services.